Content
SEND FEEDBACK

Daily
Averages
Monthly
Summary
United States of America

SPENCER, NEBRASKA


Home > North America > United States > Nebraska
Elevation: 1721 feet     Latitude: 42 49N     Longitude: 098 39W

WEATHER
 
SELECT A DAY
Number of Records: 449,723;   Date Range: 9/29/95 - 8/12/14
 
SHARE

PRINT THIS DATA

[ ← Previous Day ]
WEATHER ALMANAC - JANUARY 31, 2013
[ Next Day → ]
[ °C ]   °F
Weather ElementAverageHighLow
Temperature2.8 °F8.6 °F (1:15 am)-3.6 °F (9:55 pm)
Dewpoint-4.6 °F4.1 °F (1:15 am)-9.6 °F (9:55 pm)
Humidity71.7 %84 % (2:55 am)59 % (3:55 pm)
Barometer30.17 in30.30 in (6:35 pm)29.92 in (1:15 am)
Wind Speed14 mph27.6 mph (9:55 am)
Wind Gust34.5 mph (9:35 am)
Weather ElementAverage
Visibility9.7 mi
Wind DirectionNW (311.4 °)

Weather ElementTotal
Precipitation---
Heating Degree Days62.5 (Base 65)
Averaged from 71 records on January 31, 2013
WEATHER CONDITIONS BREAKOUT
WIND DIRECTION BREAKOUT
WEATHER BY HOUR - JANUARY 31, 2013
[ °C ]   °F
Local TimeTemperatureDewpointHumidityBarometerVisibilityWind DirectionWind SpeedGust SpeedPrecipitationEventsConditions
12:35 AM8.2 °F3.7 °F82 %29.93 in10.0 miNW (310°)10.4 mphOvercast
12:55 AM8.4 °F3.7 °F81 %29.93 in10.0 miNW (320°)11.5 mphOvercast
1:15 AM8.6 °F4.1 °F82 %29.92 in10.0 miNW (320°)10.4 mphScattered Clouds
1:35 AM8.2 °F3.7 °F82 %29.92 in10.0 miNW (320°)10.4 mphMostly Cloudy
1:55 AM7.7 °F3.2 °F82 %29.93 in10.0 miNW (320°)10.4 mphMostly Cloudy
2:15 AM7.2 °F3.0 °F83 %29.93 in10.0 miNW (320°)8.1 mphScattered Clouds
2:35 AM6.4 °F2.3 °F83 %29.94 in10.0 miNW (320°)6.9 mphClear
2:55 AM6.1 °F2.1 °F84 %29.96 in10.0 miNW (310°)9.2 mphScattered Clouds
3:15 AM5.9 °F1.8 °F83 %29.97 in10.0 miNW (320°)11.5 mph16.1 mphMostly Cloudy
3:35 AM5.4 °F0.5 °F80 %29.97 in10.0 miNW (320°)11.5 mphMostly Cloudy
3:55 AM4.8 °F-0.6 °F78 %29.97 in10.0 miNW (320°)12.7 mphClear
4:15 AM4.3 °F-2.2 °F75 %29.98 in10.0 miNW (310°)13.8 mph17.3 mphClear
4:35 AM3.7 °F-3.1 °F73 %29.99 in10.0 miNW (310°)15.0 mph19.6 mphScattered Clouds
4:55 AM3.0 °F-3.5 °F74 %30.00 in10.0 miNW (320°)17.3 mph20.7 mphMostly Cloudy
5:15 AM2.3 °F-4.0 °F75 %30.01 in10.0 miNW (310°)12.7 mphScattered Clouds
5:35 AM2.1 °F-4.0 °F76 %30.01 in10.0 miNW (320°)15.0 mphScattered Clouds
5:55 AM1.6 °F-4.5 °F76 %30.03 in10.0 miNW (310°)13.8 mphMostly Cloudy
6:15 AM1.4 °F-4.5 °F76 %30.04 in10.0 miNW (320°)15.0 mph20.7 mphOvercast
6:35 AM1.4 °F-4.0 °F78 %30.04 in10.0 miNW (320°)11.5 mphMostly Cloudy
6:55 AM1.0 °F-4.7 °F77 %30.06 in10.0 miNW (320°)11.5 mphScattered Clouds
7:15 AM0.5 °F-5.1 °F77 %30.06 in10.0 miNW (310°)12.7 mphMostly Cloudy
7:35 AM0.5 °F-5.1 °F77 %30.08 in10.0 miNW (320°)11.5 mphMostly Cloudy
7:55 AM1.2 °F-4.0 °F79 %30.10 in4.0 miNW (320°)15.0 mphHaze
8:15 AM1.2 °F-4.0 °F79 %30.11 in4.0 miNW (320°)16.1 mph19.6 mphHaze
8:35 AM1.8 °F-4.0 °F77 %30.14 in10.0 miNNW (330°)15.0 mph20.7 mphScattered Clouds
8:55 AM1.9 °F-4.0 °F76 %30.15 in10.0 miNNW (340°)18.4 mph24.2 mphScattered Clouds
9:15 AM3.0 °F-3.8 °F73 %30.18 in10.0 miNNW (330°)21.9 mph26.5 mphMostly Cloudy
9:35 AM3.0 °F-5.1 °F69 %30.19 in10.0 miNW (320°)26.5 mph34.5 mphMostly Cloudy
9:55 AM2.5 °F-5.4 °F70 %30.21 in10.0 miNW (320°)27.6 mph33.4 mphMostly Cloudy
10:15 AM2.8 °F-4.5 °F71 %30.22 in7.0 miNNW (330°)24.2 mph32.2 mphMostly Cloudy
10:35 AM3.2 °F-5.3 °F68 %30.23 in10.0 miNW (320°)23.0 mph28.8 mphMostly Cloudy
10:55 AM2.8 °F-4.9 °F70 %30.24 in4.0 miNW (320°)24.2 mph28.8 mphHaze
11:15 AM3.9 °F-5.8 °F64 %30.25 in10.0 miNW (320°)26.5 mph32.2 mphMostly Cloudy
11:35 AM3.4 °F-5.8 °F66 %30.26 in10.0 miNW (320°)19.6 mph27.6 mphMostly Cloudy
11:55 AM3.0 °F-6.0 °F66 %30.27 in10.0 miNW (310°)21.9 mph27.6 mphOvercast
12:15 PM2.8 °F-6.7 °F64 %30.27 in10.0 miNW (320°)27.6 mph33.4 mphMostly Cloudy
12:35 PM3.2 °F-6.3 °F65 %30.27 in10.0 miNW (320°)21.9 mph29.9 mphMostly Cloudy
12:55 PM3.4 °F-6.5 °F63 %30.27 in10.0 miNNW (330°)26.5 mph33.4 mphMostly Cloudy
1:15 PM3.2 °F-6.5 °F64 %30.27 in10.0 miNW (310°)20.7 mphScattered Clouds
1:35 PM3.2 °F-7.2 °F62 %30.28 in10.0 miNW (310°)24.2 mph28.8 mphClear
1:55 PM3.9 °F-6.2 °F63 %30.26 in10.0 miNW (320°)21.9 mph27.6 mphScattered Clouds
2:15 PM4.8 °F-5.3 °F63 %30.26 in10.0 miNNW (330°)25.3 mph28.8 mphScattered Clouds
2:35 PM4.1 °F-6.5 °F61 %30.26 in10.0 miNNW (330°)21.9 mph29.9 mphScattered Clouds
2:55 PM4.8 °F-6.0 °F61 %30.26 in10.0 miNW (320°)16.1 mph27.6 mphClear
3:15 PM5.9 °F-5.1 °F61 %30.27 in10.0 miNW (320°)15.0 mph21.9 mphClear
3:35 PM5.9 °F-5.3 °F60 %30.27 in10.0 miNNW (330°)18.4 mphClear
3:55 PM5.7 °F-5.8 °F59 %30.27 in10.0 miNW (310°)16.1 mph21.9 mphClear
4:15 PM5.0 °F-6.3 °F60 %30.28 in10.0 miNW (320°)17.3 mphClear
4:35 PM5.0 °F-6.2 °F60 %30.28 in10.0 miNW (310°)16.1 mph20.7 mphClear
4:55 PM4.6 °F-6.5 °F60 %30.28 in10.0 miNW (320°)12.7 mphClear
5:15 PM3.7 °F-7.1 °F61 %30.28 in10.0 miNW (310°)13.8 mphClear
5:35 PM3.0 °F-7.1 °F63 %30.28 in10.0 miNW (310°)12.7 mph16.1 mphClear
5:55 PM2.3 °F-7.1 °F65 %30.28 in10.0 miNW (310°)12.7 mphClear
6:15 PM1.8 °F-7.6 °F65 %30.29 in10.0 miNW (320°)10.4 mphClear
6:35 PM1.2 °F-7.4 °F67 %30.30 in10.0 miNW (310°)9.2 mphClear
6:55 PM0.9 °F-7.2 °F69 %30.30 in10.0 miNW (310°)8.1 mphClear
7:15 PM-0.2 °F-7.6 °F71 %30.28 in10.0 miNNW (330°)8.1 mphClear
7:35 PM-0.6 °F-7.8 °F72 %30.29 in10.0 miNW (310°)5.8 mphClear
7:55 PM-1.3 °F-8.5 °F72 %30.29 in10.0 miNW (310°)5.8 mphClear
8:15 PM-1.1 °F-8.1 °F72 %30.29 in10.0 miNW (310°)5.8 mphClear
8:35 PM-2.4 °F-8.5 °F75 %30.29 in10.0 miNorth (350°)5.8 mphClear
8:55 PM-3.1 °F-9.0 °F76 %30.28 in10.0 miNNW (330°)3.5 mphClear
9:15 PM-3.3 °F-9.4 °F75 %30.28 in10.0 miNNW (340°)4.6 mphClear
9:35 PM-3.5 °F-9.4 °F76 %30.28 in10.0 miNorth (350°)4.6 mphClear
9:55 PM-3.6 °F-9.6 °F76 %30.28 in10.0 miWest (270°)3.5 mphScattered Clouds
10:15 PM-2.2 °F-7.6 °F78 %30.30 in10.0 miWSW (240°)3.5 mphMostly Cloudy
10:35 PM-0.6 °F-6.2 °F77 %30.30 in10.0 miSW (220°)6.9 mphOvercast
10:55 PM0.5 °F-5.8 °F75 %30.29 in10.0 miSW (220°)8.1 mphOvercast
11:15 PM1.4 °F-5.1 °F74 %30.29 in10.0 miSW (230°)6.9 mphOvercast
11:35 PM2.1 °F-5.1 °F72 %30.30 in10.0 miSW (230°)5.8 mphOvercast
11:55 PM2.8 °F-5.1 °F70 %30.29 in10.0 miSW (230°)4.6 mphOvercast
Hourly data recorded from KONL, located miles away from Spencer, Nebraska







STORIES FROM OUR PARTNERS